Safford, AZ

10:53 PM MST on April 21, 2018 (GMT -0700)
Safford Regional

Weather History for KSAD - February, 2013

Change the Weather History Date:

Monday, February 18, 2013

  Actual Average Record
Temperature  
Mean Temperature 50 °F -  
Max Temperature 66 °F 65 °F 80 °F (2014)
Min Temperature 34 °F 32 °F 18 °F (1956)
Degree Days  
Heating Degree Days 15    
Moisture  
Dew Point 8 °F    
Average Humidity 18    
Maximum Humidity 34    
Minimum Humidity 9    
Precipitation  
Precipitation 0.00 in - - ()
Sea Level Pressure  
Sea Level Pressure 29.94 in    
Wind  
Wind Speed 7 mph (NE)    
Max Wind Speed 13 mph    
Max Gust Speed -    
Visibility 10 miles    
Events      
Averages and records for this station are not official NWS values.
T = Trace of Precipitation, MM = Missing Value Source: NWS Daily Summary

Daily Weather History Graph

Daily Weather History Graph

Search for Another Location

Airport or City:

Astronomy

Feb. 18, 2013 Rise Set
Actual Time 6:58 AM MST 6:06 PM MST
Civil Twilight 6:33 AM MST 6:31 PM MST
Nautical Twilight 6:04 AM MST 7:00 PM MST
Astronomical Twilight 5:35 AM MST 7:29 PM MST
Moon 12:04 PM MST (2/18) 1:32 AM MST (2/18)
Length of Visible Light 11h 58m
Length of Day
11h 08m
First Quarter, 59% of the Moon is Illuminated
Feb 18
First Quarter
Feb 25
Full
Mar 4
Last Quarter
Mar 11
New
Mar 19
First Quarter

Hourly Weather History & Observations

Time (MST) Temp. Windchill Dew Point Humidity Pressure Visibility Wind Dir Wind Speed Gust Speed Precip Events Conditions
12:51 AM 48.0 °F - 9.0 °F 21% 29.88 in 10.0 mi West 12.7 mph - N/A   Clear
1:51 AM 48.0 °F - 9.0 °F 21% 29.89 in 10.0 mi West 11.5 mph - N/A   Clear
2:51 AM 46.9 °F - 9.0 °F 21% 29.88 in 10.0 mi NW 4.6 mph - N/A   Clear
3:51 AM 44.1 °F 38.6 °F 9.0 °F 24% 29.89 in 10.0 mi North 10.4 mph - N/A   Clear
4:51 AM 42.1 °F 38.4 °F 9.0 °F 26% 29.92 in 10.0 mi SSE 5.8 mph - N/A   Clear
5:51 AM 37.9 °F - 9.0 °F 30% 29.97 in 10.0 mi Calm Calm - N/A   Clear
6:51 AM 34.0 °F 28.8 °F 8.1 °F 34% 30.00 in 10.0 mi ENE 5.8 mph - N/A   Clear
7:51 AM 39.0 °F 34.8 °F 10.0 °F 30% 30.02 in 10.0 mi East 5.8 mph - N/A   Clear
8:51 AM 46.9 °F - 12.0 °F 24% 30.03 in 10.0 mi SSE 4.6 mph - N/A   Clear
9:51 AM 54.0 °F - 12.0 °F 19% 30.02 in 10.0 mi Calm Calm - N/A   Clear
10:51 AM 57.9 °F - 12.0 °F 16% 30.01 in 10.0 mi Variable 3.5 mph - N/A   Clear
11:51 AM 63.0 °F - 10.9 °F 13% 29.99 in 10.0 mi Variable 6.9 mph - N/A   Clear
12:51 PM 64.9 °F - 9.0 °F 11% 29.96 in 10.0 mi WSW 8.1 mph - N/A   Clear
1:51 PM 66.0 °F - 5.0 °F 9% 29.92 in 10.0 mi WNW 8.1 mph - N/A   Clear
2:51 PM 66.0 °F - 6.1 °F 9% 29.90 in 10.0 mi Calm Calm - N/A   Clear
3:51 PM 66.0 °F - 6.1 °F 9% 29.90 in 10.0 mi NW 5.8 mph - N/A   Clear
4:51 PM 64.9 °F - 6.1 °F 10% 29.90 in 10.0 mi Calm Calm - N/A   Clear
5:51 PM 64.0 °F - 6.1 °F 10% 29.91 in 10.0 mi Calm Calm - N/A   Clear
6:51 PM 55.9 °F - 6.1 °F 14% 29.93 in 10.0 mi NNE 3.5 mph - N/A   Clear
7:51 PM 55.9 °F - 7.0 °F 14% 29.92 in 10.0 mi NNE 4.6 mph - N/A   Clear
8:51 PM 55.9 °F - 7.0 °F 14% 29.91 in 10.0 mi Calm Calm - N/A   Clear
9:51 PM 48.9 °F - 7.0 °F 18% 29.92 in 10.0 mi ESE 4.6 mph - N/A   Clear
10:51 PM 46.0 °F 43.1 °F 7.0 °F 20% 29.92 in 10.0 mi East 5.8 mph - N/A   Clear
11:51 PM 44.1 °F 40.8 °F 8.1 °F 23% 29.90 in 10.0 mi SE 5.8 mph - N/A   Clear